Weather History for Lapeer, MI

Change the Weather History Date:

Tuesday, February 19, 2013

  Actual Average (KFNT) Record (KFNT)
Temperature  
Mean Temperature 30 °F 26 °F  
Max Temperature 43 °F 34 °F 59 °F (1994)
Min Temperature 18 °F 18 °F -14 °F (1944)
Degree Days  
Heating Degree Days 34 39  
Month to date heating degree days 781  
Since 1 July heating degree days 4745  
Cooling Degree Days 0 0  
Month to date cooling degree days 0  
Year to date cooling degree days 0  
Moisture  
Dew Point 25 °F    
Average Humidity 81    
Maximum Humidity 92    
Minimum Humidity 66    
Precipitation  
Precipitation 0.05 in 0.05 in 0.60 in (1939)
Month to date precipitation 0.95  
Year to date precipitation 2.58  
Snow  
Snow 0.00 in 0.40 in 1.80 in (2008)
Month to date snowfall 7.5  
Since 1 July snowfall 35.3  
Snow Depth -    
Sea Level Pressure  
Sea Level Pressure 29.59 in    
Wind  
Wind Speed 16 mph (SW)    
Max Wind Speed 25 mph    
Max Gust Speed 37 mph    
Visibility 8 miles    
Events Rain , Snow    
T = Trace of Precipitation, MM = Missing Value Source: NWS Daily Summary

Daily Weather History Graph

Daily Weather History Graph

Search for Another Location

Airport:

Trip Planner

Search our weather history database for the weather conditions in past years. The results will help you decide how hot, cold, wet, or windy it might be!

Date:

Astronomy

Feb. 19, 2013 Rise Set
Actual Time 7:24 AM EST 6:09 PM EST
Civil Twilight 6:55 AM EST 6:38 PM EST
Nautical Twilight 6:22 AM EST 7:11 PM EST
Astronomical Twilight 5:49 AM EST 7:44 PM EST
Moon 12:35 PM EST (2/19) 3:00 AM EST (2/19)
Length of Visible Light 11h 43m
Length of Day
10h 45m
Waxing Gibbous, 67% of the Moon is Illuminated
Feb 19
Waxing Gibbous
Feb 25
Full
Mar 4
Last Quarter
Mar 11
New
Mar 19
First Quarter

Hourly Weather History & Observations

Time (EST) Temp. Windchill Dew Point Humidity Pressure Visibility Wind Dir Wind Speed Gust Speed Precip Events Conditions
12:12 AM 43.0 °F 36.8 °F 32.4 °F 66% 29.56 in 10.0 mi South 11.5 mph 23.0 mph N/A   Overcast
12:32 AM 42.8 °F 35.8 °F 32.9 °F 68% 29.55 in 10.0 mi South 13.8 mph 21.9 mph N/A   Overcast
12:53 AM 42.1 °F 35.7 °F 33.6 °F 72% 29.55 in 10.0 mi South 11.5 mph 19.6 mph N/A Rain Light Rain
1:12 AM 41.2 °F 35.0 °F 34.3 °F 77% 29.53 in 10.0 mi South 10.4 mph - N/A Rain Light Rain
1:32 AM 41.0 °F 33.5 °F 34.0 °F 76% 29.52 in 10.0 mi SSE 13.8 mph - N/A   Light Drizzle
1:53 AM 41.4 °F 34.7 °F 34.2 °F 76% 29.50 in 10.0 mi South 11.5 mph 18.4 mph N/A   Drizzle
2:11 AM 41.4 °F 33.6 °F 35.6 °F 80% 29.48 in 10.0 mi South 15.0 mph 23.0 mph N/A   Light Drizzle
2:32 AM 41.9 °F 34.0 °F 36.9 °F 82% 29.47 in 10.0 mi South 16.1 mph 26.5 mph N/A Rain Light Rain
2:53 AM 41.0 °F 33.1 °F 37.8 °F 88% 29.45 in 10.0 mi SSE 15.0 mph 21.9 mph N/A Rain Light Rain
3:12 AM 40.1 °F 32.4 °F 37.4 °F 90% 29.43 in 10.0 mi SSE 13.8 mph 20.7 mph 0.01 in Rain Rain
3:33 AM 40.1 °F 31.0 °F 37.6 °F 91% 29.41 in 10.0 mi South 18.4 mph 26.5 mph 0.03 in Rain Light Rain
3:53 AM 39.9 °F 31.8 °F 37.4 °F 91% 29.40 in 10.0 mi South 15.0 mph 19.6 mph 0.03 in Rain Light Rain
4:12 AM 40.1 °F 32.4 °F 37.2 °F 89% 29.38 in 10.0 mi South 13.8 mph 24.2 mph N/A Rain Light Rain
4:33 AM 40.1 °F 32.0 °F 37.4 °F 90% 29.38 in 10.0 mi South 15.0 mph 28.8 mph N/A Rain Light Rain
4:53 AM 40.1 °F 31.6 °F 37.4 °F 90% 29.37 in 10.0 mi South 16.1 mph 23.0 mph 0.01 in Rain Light Rain
5:12 AM 40.3 °F 32.2 °F 37.8 °F 91% 29.37 in 10.0 mi South 15.0 mph 21.9 mph N/A Rain Rain
5:33 AM 40.8 °F 31.4 °F 38.1 °F 90% 29.39 in 7.0 mi WSW 20.7 mph 29.9 mph 0.01 in Rain Rain
5:52 AM 36.7 °F 26.9 °F 33.4 °F 88% 29.41 in 10.0 mi WSW 17.3 mph 29.9 mph 0.01 in   Drizzle
6:12 AM 35.8 °F 26.5 °F 32.2 °F 87% 29.42 in 10.0 mi WSW 15.0 mph 25.3 mph N/A   Overcast
6:52 AM 34.7 °F 25.5 °F 32.0 °F 90% 29.44 in 10.0 mi WSW 13.8 mph 20.7 mph N/A   Overcast
7:12 AM 34.5 °F 23.4 °F 32.0 °F 90% 29.45 in 10.0 mi WSW 19.6 mph 26.5 mph N/A   Overcast
7:33 AM 34.2 °F 25.2 °F 32.0 °F 92% 29.46 in 7.0 mi WSW 12.7 mph 21.9 mph N/A   Overcast
7:52 AM 33.4 °F 23.5 °F 31.1 °F 91% 29.47 in 10.0 mi WSW 15.0 mph 27.6 mph N/A   Overcast
8:12 AM 32.9 °F 21.6 °F 30.9 °F 92% 29.49 in 10.0 mi SW 18.4 mph 23.0 mph N/A   Overcast
8:33 AM 32.2 °F 21.4 °F 29.5 °F 90% 29.49 in 10.0 mi WSW 16.1 mph 25.3 mph N/A   Overcast
8:52 AM 32.0 °F 19.8 °F 29.5 °F 90% 29.50 in 10.0 mi SW 20.7 mph 26.5 mph N/A   Overcast
9:12 AM 31.6 °F 20.7 °F 27.5 °F 85% 29.51 in 10.0 mi WSW 16.1 mph 28.8 mph N/A   Overcast
9:33 AM 30.9 °F 19.4 °F 27.3 °F 86% 29.52 in 10.0 mi WSW 17.3 mph 28.8 mph N/A   Overcast
9:52 AM 30.2 °F 17.8 °F 26.8 °F 87% 29.53 in 10.0 mi WSW 19.6 mph 28.8 mph N/A   Overcast
10:33 AM 28.4 °F 16.2 °F 23.9 °F 83% 29.55 in 10.0 mi WSW 17.3 mph 31.1 mph N/A   Overcast
10:52 AM 28.4 °F 16.2 °F 23.7 °F 83% 29.55 in 10.0 mi WSW 17.3 mph 25.3 mph N/A   Overcast
11:12 AM 28.2 °F 15.2 °F 22.3 °F 78% 29.55 in 10.0 mi WSW 19.6 mph 29.9 mph N/A Snow Light Snow
11:33 AM 27.7 °F 14.1 °F 21.4 °F 77% 29.56 in 10.0 mi WSW 20.7 mph 32.2 mph N/A Snow Light Snow
11:52 AM 27.3 °F 14.8 °F 20.5 °F 75% 29.57 in 10.0 mi West 17.3 mph 25.3 mph N/A Snow Light Snow
12:12 PM 27.3 °F 13.0 °F 20.1 °F 74% 29.56 in 7.0 mi WSW 23.0 mph 29.9 mph N/A Snow Light Snow
12:33 PM 26.6 °F 11.7 °F 18.7 °F 72% 29.57 in 10.0 mi WSW 24.2 mph 34.5 mph N/A Snow Light Snow
12:52 PM 26.4 °F 12.1 °F 18.1 °F 71% 29.57 in 7.0 mi WSW 21.9 mph 31.1 mph N/A Snow Light Snow
1:12 PM 26.2 °F 11.2 °F 18.1 °F 71% 29.57 in 7.0 mi West 24.2 mph 31.1 mph N/A Snow Light Snow
1:33 PM 25.9 °F 10.4 °F 19.4 °F 76% 29.58 in 5.0 mi WSW 25.3 mph 29.9 mph N/A Snow Light Snow
1:52 PM 25.5 °F 11.6 °F 18.5 °F 75% 29.58 in 3.0 mi WSW 19.6 mph 31.1 mph N/A Snow Light Snow
2:12 PM 25.0 °F 9.9 °F 18.1 °F 75% 29.59 in 4.0 mi WSW 23.0 mph 36.8 mph N/A Snow Light Snow
2:33 PM 24.4 °F 11.5 °F 19.6 °F 82% 29.60 in 2.5 mi WSW 16.1 mph 25.3 mph N/A Snow Light Snow
2:52 PM 24.4 °F 11.0 °F 19.4 °F 81% 29.60 in 2.5 mi WSW 17.3 mph 24.2 mph N/A Snow Light Snow
3:13 PM 24.1 °F 11.5 °F 18.9 °F 80% 29.61 in 4.0 mi WSW 15.0 mph 25.3 mph N/A Snow Light Snow
3:33 PM 24.8 °F 11.1 °F 18.1 °F 76% 29.62 in 10.0 mi WSW 18.4 mph 26.5 mph N/A Snow Light Snow
3:52 PM 25.3 °F 12.2 °F 17.4 °F 72% 29.63 in 10.0 mi WSW 17.3 mph 28.8 mph N/A Snow Light Snow
4:13 PM 25.2 °F 11.2 °F 17.8 °F 74% 29.64 in 7.0 mi WSW 19.6 mph 29.9 mph N/A Snow Light Snow
4:33 PM 24.8 °F 11.1 °F 18.7 °F 78% 29.65 in 4.0 mi WSW 18.4 mph 27.6 mph N/A Snow Light Snow
4:52 PM 24.1 °F 11.5 °F 19.4 °F 82% 29.66 in 2.5 mi WSW 15.0 mph 27.6 mph N/A Snow Light Snow
5:12 PM 23.9 °F 9.1 °F 17.1 °F 75% 29.68 in 4.0 mi West 20.7 mph 33.4 mph N/A Snow Light Snow
5:32 PM 23.5 °F 10.3 °F 18.3 °F 80% 29.69 in 2.0 mi West 16.1 mph 31.1 mph N/A Snow Light Snow
5:53 PM 23.0 °F 9.2 °F 18.0 °F 81% 29.71 in 2.5 mi WSW 17.3 mph 28.8 mph N/A Snow Light Snow
6:12 PM 22.5 °F 8.9 °F 16.5 °F 78% 29.72 in 5.0 mi West 16.1 mph 29.9 mph N/A Snow Light Snow
7:32 PM 21.0 °F 6.6 °F 16.3 °F 82% 29.78 in 4.0 mi West 17.3 mph 25.3 mph N/A Snow Light Snow
7:53 PM 20.1 °F 4.6 °F 15.1 °F 81% 29.79 in 3.0 mi West 19.6 mph 31.1 mph N/A Snow Light Snow
8:12 PM 19.9 °F 4.3 °F 16.5 °F 87% 29.79 in 2.5 mi WSW 19.6 mph 24.2 mph N/A Snow Light Snow
8:53 PM 19.4 °F 4.5 °F 13.8 °F 79% 29.80 in 4.0 mi WSW 17.3 mph 27.6 mph N/A Snow Light Snow
9:12 PM 19.2 °F 7.0 °F 14.5 °F 82% 29.81 in 3.0 mi WSW 11.5 mph 25.3 mph N/A Snow Light Snow
9:32 PM 19.0 °F 3.2 °F 13.8 °F 80% 29.82 in 4.0 mi West 19.6 mph 27.6 mph N/A Snow Light Snow
9:53 PM 19.0 °F 5.6 °F 12.7 °F 76% 29.82 in 7.0 mi West 13.8 mph 27.6 mph N/A Snow Light Snow
10:12 PM 19.0 °F 5.0 °F 12.0 °F 74% 29.83 in 10.0 mi West 15.0 mph 26.5 mph N/A Snow Light Snow
10:33 PM 19.0 °F 4.0 °F 12.7 °F 76% 29.83 in 7.0 mi West 17.3 mph 23.0 mph N/A Snow Light Snow
10:53 PM 18.5 °F 4.9 °F 13.5 °F 81% 29.83 in 5.0 mi WSW 13.8 mph 23.0 mph N/A Snow Light Snow
11:12 PM 18.5 °F 4.3 °F 13.1 °F 79% 29.83 in 7.0 mi West 15.0 mph 21.9 mph N/A Snow Light Snow
11:32 PM 18.5 °F 4.9 °F 12.7 °F 78% 29.84 in 5.0 mi West 13.8 mph 25.3 mph N/A Snow Light Snow
11:53 PM 18.1 °F 3.9 °F 13.3 °F 81% 29.85 in 3.0 mi West 15.0 mph 26.5 mph N/A Snow Light Snow